Aberdeen, SD

10:26 PM CDT on April 21, 2018 (GMT -0500)
Aberdeen Regional

Weather History for KABR - August, 2014

Change the Weather History Date:

Thursday, August 21, 2014

  Actual Average Record
Temperature  
Mean Temperature 74 °F 68 °F  
Max Temperature 85 °F 81 °F 105 °F (1947)
Min Temperature 63 °F 55 °F 37 °F (2004)
Degree Days  
Heating Degree Days 0 1  
Month to date heating degree days 3 17  
Since 1 June heating degree days 123 107  
Since 1 July heating degree days 40 31  
Cooling Degree Days 9 5  
Month to date cooling degree days 88 124  
Year to date cooling degree days 290 447  
Since 1 June cooling degree days 248 424  
Growing Degree Days 24 (Base 50)    
Moisture  
Dew Point 66 °F    
Average Humidity 79    
Maximum Humidity 100    
Minimum Humidity 58    
Precipitation  
Precipitation 0.71 in 0.08 in 1.80 in (1916)
Month to date precipitation 2.07 1.64  
Year to date precipitation 11.51 15.50  
Sea Level Pressure  
Sea Level Pressure 29.77 in    
Wind  
Wind Speed 8 mph (NW)    
Max Wind Speed 16 mph    
Max Gust Speed 20 mph    
Visibility 8 miles    
Events Rain , Thunderstorm    
T = Trace of Precipitation, MM = Missing Value Source: NWS Daily Summary

Daily Weather History Graph

Daily Weather History Graph

Search for Another Location

Airport or City:

Astronomy

Aug. 21, 2014 Rise Set
Actual Time 6:41 AM CDT 8:30 PM CDT
Civil Twilight 6:10 AM CDT 9:02 PM CDT
Nautical Twilight 5:31 AM CDT 9:40 PM CDT
Astronomical Twilight 4:49 AM CDT 10:22 PM CDT
Moon 3:08 AM CDT (8/21) 6:04 PM CDT (8/21)
Length of Visible Light 14h 52m
Length of Day
13h 49m
Waning Crescent, 13% of the Moon is Illuminated
Aug 21
Waning Crescent
Aug 25
New
Sep 2
First Quarter
Sep 8
Full
Sep 15
Last Quarter

Hourly Weather History & Observations

Time (CDT) Temp. Heat Index Dew Point Humidity Pressure Visibility Wind Dir Wind Speed Gust Speed Precip Events Conditions
12:05 AM 72.0 °F - 70.0 °F 93% 29.73 in 10.0 mi NW 5.8 mph - N/A Thunderstorm Overcast
12:45 AM 66.9 °F - 64.9 °F 93% 29.72 in 10.0 mi NNW 21.9 mph 29.9 mph 0.04 in Rain , Thunderstorm Light Thunderstorms and Rain
12:53 AM 66.0 °F - 66.0 °F 100% 29.76 in 2.0 mi West 19.6 mph 29.9 mph 0.13 in Rain , Thunderstorm Heavy Thunderstorms and Rain
12:57 AM 64.9 °F - 64.9 °F 100% 29.79 in 1.5 mi WSW 20.7 mph 29.9 mph 0.10 in Rain , Thunderstorm Heavy Thunderstorms and Rain
1:02 AM 64.9 °F - 64.9 °F 100% 29.77 in 0.8 mi North 9.2 mph 29.9 mph 0.31 in Rain , Thunderstorm Heavy Thunderstorms and Rain
1:09 AM 64.9 °F - 64.9 °F 100% 29.75 in 1.0 mi NE 9.2 mph - 0.64 in Rain , Thunderstorm Heavy Thunderstorms and Rain
1:14 AM 64.9 °F - 64.9 °F 100% 29.73 in 2.0 mi NE 10.4 mph - 0.70 in Rain , Thunderstorm Heavy Thunderstorms and Rain
1:23 AM 64.9 °F - 64.9 °F 100% 29.72 in 5.0 mi NE 10.4 mph - 0.74 in Rain , Thunderstorm Thunderstorms and Rain
1:45 AM 64.9 °F - 64.9 °F 100% 29.77 in 5.0 mi South 4.6 mph - 0.80 in Rain , Thunderstorm Rain
1:53 AM 64.9 °F - 64.9 °F 100% 29.70 in 4.0 mi ESE 9.2 mph - 0.82 in Rain , Thunderstorm Rain
2:10 AM 64.9 °F - 64.9 °F 100% 29.66 in 10.0 mi East 12.7 mph - 0.04 in   Mostly Cloudy
2:53 AM 64.9 °F - 64.9 °F 100% 29.63 in 10.0 mi East 4.6 mph - 0.04 in   Clear
3:53 AM 64.0 °F - 64.0 °F 100% 29.65 in 10.0 mi West 5.8 mph - N/A   Mostly Cloudy
4:53 AM 64.9 °F - 64.9 °F 100% 29.68 in 10.0 mi West 3.5 mph - N/A   Mostly Cloudy
5:53 AM 64.9 °F - 64.9 °F 100% 29.70 in 10.0 mi Calm Calm - N/A   Overcast
6:53 AM 63.0 °F - 63.0 °F 100% 29.73 in 10.0 mi WSW 5.8 mph - N/A   Mostly Cloudy
7:53 AM 66.0 °F - 64.9 °F 96% 29.75 in 10.0 mi WSW 8.1 mph - N/A   Clear
8:53 AM 66.9 °F - 64.9 °F 93% 29.75 in 10.0 mi WSW 6.9 mph - N/A   Clear
9:53 AM 70.0 °F - 66.0 °F 87% 29.75 in 10.0 mi West 9.2 mph - N/A   Scattered Clouds
10:18 AM 71.1 °F - 66.0 °F 84% 29.77 in 10.0 mi WNW 11.5 mph - N/A   Mostly Cloudy
10:53 AM 72.0 °F - 66.9 °F 84% 29.76 in 10.0 mi WNW 9.2 mph - N/A   Mostly Cloudy
11:18 AM 73.9 °F - 68.0 °F 82% 29.78 in 10.0 mi WNW 4.6 mph - N/A   Mostly Cloudy
11:53 AM 75.9 °F - 68.0 °F 76% 29.76 in 10.0 mi NW 9.2 mph - N/A   Mostly Cloudy
12:02 PM 77.0 °F - 68.0 °F 74% 29.78 in 10.0 mi WNW 6.9 mph - N/A   Scattered Clouds
12:29 PM 79.0 °F - 69.1 °F 72% 29.79 in 10.0 mi NW 11.5 mph - N/A   Mostly Cloudy
12:53 PM 79.0 °F - 68.0 °F 69% 29.77 in 10.0 mi NW 8.1 mph 17.3 mph N/A   Overcast
1:32 PM 82.0 °F 84.9 °F 68.0 °F 62% 29.79 in 10.0 mi NNW 11.5 mph - N/A   Mostly Cloudy
1:53 PM 82.9 °F 86.5 °F 69.1 °F 63% 29.77 in 10.0 mi WNW 10.4 mph - N/A   Mostly Cloudy
2:53 PM 82.0 °F 84.9 °F 68.0 °F 62% 29.78 in 10.0 mi NNW 10.4 mph - N/A   Scattered Clouds
3:53 PM 84.0 °F 87.0 °F 68.0 °F 58% 29.80 in 10.0 mi NW 15.0 mph - N/A   Partly Cloudy
4:53 PM 82.9 °F 85.4 °F 66.9 °F 58% 29.81 in 10.0 mi NW 13.8 mph - N/A   Clear
5:53 PM 82.0 °F 84.1 °F 66.0 °F 58% 29.83 in 10.0 mi NNW 13.8 mph - N/A   Clear
6:53 PM 80.1 °F 82.1 °F 66.0 °F 62% 29.85 in 10.0 mi North 10.4 mph - N/A   Clear
7:53 PM 75.9 °F - 66.0 °F 71% 29.86 in 10.0 mi NNW 6.9 mph - N/A   Clear
8:53 PM 71.1 °F - 66.0 °F 84% 29.87 in 10.0 mi NNW 5.8 mph - N/A   Clear
9:53 PM 69.8 °F - 66.2 °F 88% 29.89 in 10.0 mi North 5.8 mph - N/A   Clear
10:53 PM 66.0 °F - 64.0 °F 93% 29.89 in 10.0 mi WNW 4.6 mph - N/A   Clear
11:53 PM 64.9 °F - 63.0 °F 93% 29.89 in 10.0 mi NNW 3.5 mph - N/A   Clear